Location: Champignolles
(47.0543°N, 4.5663°E)
Time: 23:25:13
(UTC+00:00)

N. Korean satellite - Pass Details

Date: 10 December 2021
Orbit: 447 x 491 km, 97.3° (Epoch: 21 January)

Event Time Altitude Azimuth Distance (km) Brightness Sun altitude
Rises 17:16:07 0° 215° (SW) 2,504 11.1 -13.6°
Reaches altitude 10° 17:19:28 10° 250° (WSW) 1,621 10.7 -14.1°
Maximum altitude 17:20:39 11° 270° (W) 1,535 10.3 -14.3°
Drops below altitude 10° 17:21:51 10° 290° (WNW) 1,617 10.0 -14.5°
Sets 17:25:11 0° 326° (NW) 2,488 10.4 -15.0°
